#timestamp,LO_Frequency,Hit,StdDev 
1627981215.1,286046994.9,Y
1627981235.9,286046997.4,P
1627981255.7,286046995.3,P
1627981275.6,286046998.0,N
1627981295.4,286046995.2,Y
1627981315.2,286046998.2,P
1627981335.1,286046999.3,N
1627981336.0,286046999.3,N
1627981355.8,286047001.2,N
1627981375.7,286046998.9,N
1627981395.5,286046999.4,N
1627981415.3,286046996.7,N
1627981435.2,286046997.1,N
1627981455.9,286046998.5,N
1627981475.7,286046999.1,N
1627981495.6,286046999.3,N
1627981515.4,286046999.3,N
1627981535.2,286046999.4,N
1627981555.1,286046997.8,N
1627981556.0,286046997.8,N
1627981575.8,286046997.6,N
1627981595.7,286046997.9,N
1627981615.5,286046996.7,Y
1627981635.3,286046999.3,P
1627981655.2,286046999.6,N
1627981675.0,286046995.0,P
1627981675.9,286046995.0,N
1627981695.7,286046995.1,N
1627981715.6,286046997.8,N
1627981735.4,286046997.1,N
1627981755.3,286046997.1,N
1627981775.1,286046997.7,N
1627981776.0,286046997.7,N
1627981795.8,286046995.1,Y
1627981815.7,286046997.0,P
1627981835.5,286046998.5,P
1627981855.3,286047002.8,P
1627981875.2,286047002.2,N
1627981895.0,286047001.4,N
1627981895.9,286047001.4,N
1627981915.8,286047004.4,N
1627981935.6,286047003.9,N
1627981955.4,286047003.7,N
1627981975.3,286047004.1,N
1627981995.1,286047002.1,N
1627982015.8,286047000.1,N
1627982035.7,286047001.0,N
1627982055.5,286046998.9,N
1627982075.4,286046998.7,N
1627982095.2,286046999.0,N
1627982115.0,286046999.3,N
1627982115.9,286046999.3,N
1627982135.8,286046999.5,N
1627982155.6,286046999.0,N
1627982175.4,286046998.4,N
1627982195.3,286046999.6,N
1627982215.1,286046998.9,N
1627982235.9,286047000.7,N
1627982255.7,286047001.2,N
1627982275.5,286046999.7,N
1627982295.4,286046999.7,N
1627982315.2,286047002.1,N
1627982335.0,286046999.7,N
1627982335.9,286046999.7,N
1627982355.8,286047001.0,N
1627982375.6,286046998.9,N
1627982395.5,286046998.1,N
1627982415.3,286046998.6,N
1627982435.1,286046998.2,N
1627982455.9,286046998.1,N
1627982475.7,286046998.7,N
1627982495.5,286046998.5,N
1627982515.4,286047001.1,N
1627982535.2,286047000.6,N
1627982555.1,286046998.3,N
1627982556.0,286046998.3,N
1627982575.8,286047000.8,N
1627982595.6,286047000.2,N
1627982615.5,286047002.4,N
1627982635.3,286047000.9,N
1627982655.1,286046998.6,N
1627982675.9,286046998.5,N
1627982695.7,286046998.2,N
1627982715.6,286046998.5,N
1627982735.4,286046998.4,N
1627982755.2,286047000.3,N
1627982805.1,286047002.3,E
1627982815.0,286047000.5,N
1627982815.9,286047000.5,P
1627982835.8,286046999.1,P
1627982855.6,286046999.4,N
1627982875.4,286046998.5,N
1627982895.3,286046998.9,N
1627982915.1,286046999.2,N
1627982935.8,286046998.0,N
1627982955.7,286046997.3,Y
1627982975.5,286046999.3,P
1627982995.4,286046999.1,P
1627983015.2,286046999.3,P
1627983035.0,286046999.4,Y
1627983035.9,286046999.4,P
1627983055.8,286046999.5,P
1627983075.6,286046996.6,P
1627983095.5,286046999.0,N
1627983115.3,286046998.8,N
1627983135.1,286046998.2,N
1627983155.9,286047000.9,N
1627983175.7,286047000.6,N
1627983195.5,286047000.0,N
1627983215.4,286046998.2,N
1627983235.2,286046998.3,N
1627983255.1,286046998.5,N
1627983256.0,286046998.5,N
1627983275.8,286046998.1,N
1627983295.6,286046998.4,N
1627983315.5,286046996.5,Y
1627983335.3,286046998.1,P
1627983355.1,286046998.3,P
1627983375.9,286046998.5,P
1627983395.7,286046998.6,Y
1627983415.6,286046999.7,P
1627983435.4,286046999.8,N
1627983455.2,286046999.9,N
1627983475.1,286047002.5,Y
1627983476.0,286047002.5,P
1627983495.8,286047001.7,N
1627983515.7,286047001.4,N
1627983535.5,286047003.1,N
1627983555.3,286047003.1,N
1627983575.2,286047003.0,N
1627983595.9,286047003.3,N
1627983615.7,286047004.3,Y
1627983635.6,286047000.4,P
1627983655.4,286046999.9,N
1627983675.3,286047001.9,N
1627983695.1,286047002.4,N
1627983696.0,286047002.4,N
1627983715.8,286047000.2,N
1627983735.7,286047000.7,N
1627983755.5,286047000.4,N
1627983775.3,286047002.3,N
1627983795.2,286047001.6,N
1627983815.0,286047001.4,N
1627983815.9,286047001.4,N
1627983835.8,286047003.0,Y
1627983855.6,286047004.2,P
1627983875.4,286047005.3,P
1627983895.3,286047004.7,N
1627983915.1,286047004.5,N
1627983935.8,286047007.1,Y
1627983955.7,286047004.0,P
1627983975.5,286047003.2,P
1627983995.4,286047003.2,P
1627984015.2,286047003.4,Y
1627984035.0,286047000.1,P
1627984035.9,286047000.1,N
1627984055.8,286046999.8,N
1627984075.6,286047002.1,N
1627984095.5,286047001.8,N
1627984115.3,286047002.4,N
1627984135.1,286047000.3,N
1627984155.9,286047001.0,N
1627984175.7,286046998.9,N
1627984195.5,286046998.6,N
1627984215.4,286047000.1,N
1627984235.2,286047002.5,N
1627984255.1,286047000.6,N
1627984256.0,286047000.6,N
1627984275.8,286046998.6,N
1627984295.6,286046996.6,N
1627984315.5,286046997.7,N
1627984335.3,286046998.0,N
1627984355.2,286046997.8,N
1627984375.9,286046997.7,N
1627984395.7,286046995.6,N
1627984415.6,286046997.2,N
1627984435.4,286046997.6,N
1627984455.2,286046995.4,N
1627984475.1,286046997.5,N
1627984476.0,286046997.5,N
1627984495.8,286046995.1,N
1627984515.7,286046995.2,N
1627984535.5,286046995.3,N
1627984555.3,286046997.3,N
1627984575.2,286046997.5,N
1627984595.0,286046995.7,N
1627984595.9,286046995.7,N
1627984615.8,286046995.8,N
1627984635.6,286046996.3,N
1627984655.4,286046993.6,Y
1627984675.3,286046995.7,P
1627984695.1,286046993.6,P
1627984715.8,286046994.8,P
1627984735.7,286046992.4,Y
1627984755.5,286046993.3,P
1627984775.4,286046993.7,P
1627984795.2,286046995.8,P
